Dewpoint
21 28 30 30 29 23 30 29 34 36 35 33 31 30 30 30 30 30 30 31 32 33 33 33 35 34 34
22 26 24 24 19 18 20 18 23 29 29 29 28 28 28 29 29 29 29 30 31 31 31 32 33 34 34
18 20 17 18 15 12 14 10 11 21 25 26 26 27 27 28 28 29 29 29 29 29 30 30 31 32 33
15 22 18 15 14 9 9 8 5 8 18 23 27 27 27 28 28 29 29 29 29 29 29 30 30 31 31
15 14 15 13 11 8 7 7 8 8 8 14 21 24 26 27 29 29 27 27 28 29 29 30 30 30 30
16 13 13 16 13 9 8 6 3 10 6 7 14 17 19 21 24 25 25 23 26 27 27 27 27 28 28
22 20 16 14 14 12 9 7 6 15 9 7 12 11 16 17 21 20 20 23 23 24 25 26 26 26 26
24 22 16 15 15 13 11 12 16 16 13 7 15 13 15 16 18 20 22 23 23 24 24 25 24 24 24
29 27 27 17 17 18 15 11 13 17 17 17 16 14 15 15 16 20 21 22 22 23 24 24 24 24 24
26 27 29 29 27 22 21 19 18 17 18 17 16 15 15 16 16 16 17 20 22 22 23 23 23 23 23
25 26 26 26 27 30 24 20 19 20 20 17 22 20 22 18 14 15 16 15 16 18 18 19 21 23 22
24 23 23 24 25 26 27 28 28 27 24 26 23 22 20 19 16 16 15 16 16 15 15 15 16 16 19
21 22 22 23 22 25 25 26 26 26 28 27 25 23 21 20 19 17 17 18 18 16 15 14 13 13 12
19 22 23 22 22 23 22 23 21 22 22 26 25 25 22 22 21 19 21 19 19 18 17 17 17 16 15
19 20 20 20 21 23 23 22 20 19 20 21 21 21 21 21 19 20 20 20 19 18 16 15 15 15 14
13 16 17 19 19 20 20 18 17 17 17 19 19 18 18 20 23 20 20 19 19 17 16 15 15 16 16
1 6 10 12 9 16 17 16 16 15 15 17 16 16 12 10 11 11 15 19 20 19 19 18 17 17 17
Wind_Speed
2 4 8 12 11 11 10 12 13 17 16 16 15 15 15 12 11 10 9 8 7 6 6 5 5 6 7
3 4 6 11 9 13 9 9 10 16 17 18 17 16 14 13 11 10 9 9 7 6 6 5 4 6 7
7 4 4 10 8 5 7 7 7 10 17 17 16 15 14 13 12 12 11 10 8 7 7 6 6 7 6
5 9 8 6 8 14 9 4 9 7 9 10 14 15 15 14 13 11 10 10 9 8 8 8 9 8 7
9 8 12 14 19 11 11 9 7 4 8 8 10 10 11 13 10 11 9 8 8 10 9 9 10 10 9
4 10 14 18 17 17 14 10 9 11 12 12 9 11 9 7 7 8 9 10 10 11 10 9 10 10 10
8 6 7 12 16 18 15 13 10 6 10 8 8 12 10 10 12 11 12 12 13 13 13 13 13 13 13
2 4 5 9 10 8 9 7 5 5 8 9 6 9 6 9 12 14 14 14 14 15 15 15 15 16 18
4 3 4 4 10 12 13 14 6 4 7 3 3 5 4 6 9 12 15 17 17 18 18 18 18 20 18
3 3 3 7 8 7 8 10 6 5 8 9 9 7 4 2 8 10 9 14 18 19 19 20 20 15 10
7 6 6 4 3 5 10 10 10 8 5 9 7 6 6 3 2 5 7 7 5 6 10 14 17 18 9
9 9 9 8 5 6 6 6 9 10 7 11 6 11 9 7 8 5 7 8 8 9 10 13 16 18 20
8 8 10 9 8 5 6 7 8 8 5 7 7 8 10 8 6 8 9 8 11 11 10 10 11 10 13
8 5 6 8 9 9 9 8 8 8 11 12 12 12 11 11 12 13 10 10 6 9 12 12 10 11 13
7 5 4 3 1 3 7 9 10 7 9 8 9 10 11 13 14 13 13 13 12 15 13 14 13 13 14
8 7 7 4 4 4 4 4 4 4 4 3 2 3 4 6 12 10 11 12 12 13 14 16 17 13 13
10 8 7 10 13 11 9 10 10 10 10 9 8 9 11 13 8 12 11 7 8 11 12 14 16 15 15
Wind_Direction
56 146 160 175 161 149 143 146 162 163 169 176 185 182 176 180 174 177 178 189 182 183 189 185 214 211 225
120 158 185 184 160 147 140 144 156 177 184 188 190 189 186 184 187 187 188 208 203 200 215 206 208 241 239
166 191 150 142 156 130 150 148 175 192 195 197 195 195 192 191 198 200 194 212 210 217 230 237 231 233 249
143 167 158 150 151 171 173 181 182 194 221 202 200 199 199 202 206 209 209 205 221 225 237 249 251 245 239
166 154 170 165 181 177 186 191 206 180 192 207 199 197 206 208 209 205 215 227 235 246 242 248 253 257 256
187 193 190 186 179 180 180 181 203 203 195 213 195 203 205 212 188 196 223 238 233 244 241 240 251 252 254
199 210 191 194 183 178 185 194 198 173 172 200 189 214 207 207 216 226 240 238 239 236 237 244 243 254 260
102 141 176 161 179 186 181 148 96 138 169 191 178 214 205 214 224 231 232 237 242 245 250 253 259 272 269
88 118 83 133 160 145 164 174 184 190 206 122 179 193 207 225 228 237 243 249 252 254 255 258 264 271 265
291 303 243 211 204 197 177 183 176 197 202 193 182 175 241 242 227 230 246 258 259 260 263 267 266 262 254
221 232 245 237 233 202 190 207 206 220 189 189 190 193 211 216 220 207 213 238 234 253 269 271 269 265 236
231 221 214 228 228 229 228 220 214 222 189 189 194 189 201 220 231 213 226 243 248 256 259 264 271 265 265
254 241 227 222 207 209 218 211 233 255 236 183 187 208 219 221 235 227 243 242 239 240 242 243 249 257 272
270 332 251 217 214 203 216 205 207 209 214 209 219 222 235 232 238 248 225 231 228 230 236 245 242 240 247
323 317 282 329 284 194 208 203 220 206 211 213 233 239 240 240 245 241 236 231 232 244 249 254 248 240 240
226 237 284 288 242 215 231 249 249 238 232 219 250 290 277 269 237 241 226 233 229 231 238 252 262 256 245
274 274 248 232 252 251 239 241 240 237 227 214 229 234 249 256 254 252 256 261 243 238 237 246 257 263 269